METEOR 2-20

导读 | 星芒AI

METEOR 2-20 是俄罗斯一颗气象卫星,属于 METEOR 系列,主要用于地球观测和气象监测。该卫星搭载多种遥感仪器,能够收集大气、海洋和地表数据,支持天气预报和环境监测。它运行在近地轨道,提供高分辨率图像和实时气象信息。METEOR 2-20 在提升俄罗斯气象服务能力方面发挥了重要作用,并为科学研究和灾害预警提供了重要数据支持。

基本信息
目录编号:
20826
目录名称:
METEOR 2-20
国际标识:
1990-086A
轨道中心:
EARTH
卫星名称:
METEOR 2-20
卫星全名:
--
卫星状态:
在轨 (已飞行12860 天)
发射日期:
1990-09-28 UTC
国别 :
俄罗斯(独联体) (CIS)
星等 :
--
轨道信息
数据来源 国际轨道数据 AOE轨道数据
星历时间 2025-12-13T07:36:17+0800
10小时前
查看轨道信息
2025-12-13T07:00:00+0800
10小时前
查看轨道信息
半长轴 7326.304km 7326.335km
偏心率 0.0013285 0.0014213
轨道倾角 82.524° 82.526°
近地点辐角 182.571° 182.624°
升交点赤经 346.020° 346.042°
平近点角 177.538° 51.957°
近地点 938.436km 937.787km
远地点 957.902km 958.613km
周期 104.013分钟 104.014分钟
每日圈数 13.844439 13.844352
详细信息
使用方式:
暂无
2D轨道图
3D轨道图
轨道高度分析图
轨道倾角分析图
轨道综合分析图
查看轨道综合分析图